SCP
0 0 0 0 0 0 0 0 0 0 0 0 0 0 0 0 0 0 0 0 0 0 0 0 0 0 0 0 0 0 0 0 0 0 0 0 0 0
0 0 0 0 0 0 0 0 0 0 0 0 0 0 0 0 0 0 0 0 0 0 0 0 0 0 0 0 0 0 0 0 0 0 0 0 0 0
0 0 0 0 0 0 0 0 0 0 0 0 0 0 0 0 0 0 0 0 0 0 0 0 0 0 0 0 0 0 0 0 0 0 0 0 0 0
0 0 0 0 0 0 0 0 0 0 0 0 0 0 0 0 0 0 0 0 0 0 0 0 0 0 0 0 0 0 0 0 0 0 0 0 0 0
0 0 0 0 0 0 0 0 0 0 0 0 0 0 0 0 0 0 0 0 0 0 0 0 0 0 0 0 0 0 0 0 0 0 0 0 0 0
0 0 0 0 0 0 0 0 0 0 0 0 0 0 0 0 0 0 0 0 0 0 0 0 0 0 0 0 0 0 0 0 0 0 0 0 0 0
0 0 0 0 0 0 0 0 0 0 0 0 0 0 0 0 0 0 0 0 0 0 0 0 0 0 0 0 0 0 0 0 0 0 0 0 0 0
0 0 0 0 0 0 0 0 0 0 0 0 0 0 0 0 0 0 0 0 0 0 0 0 0 0 0 0 0 0 0 0 0 0 0 0 0 0
0 0 0 0 0 0 0 0 0 0 0 0 0 0 0 0 0 0 0 0 0 0 0 0 0 0 0 0 0 0 0 0 0 0 0 0 0 0
0 0 0 0 0 0 0 0 0 0 0 0 0 0 0 0 0 0 0 0 0 0 0 0 0 0 0 0 0 0 0 0 0 0 0 0 0 0
0 0 0 0 0 0 0 0 0 0 0 0 0 0 0 0 0 0 0 0 0 0 0 0 0 0 0 0 0 0 0 0 0 0 0 0 0 0
0 0 0 0 0 0 0 0 0 0 0 0 0 0 0 0 0 0 0 0 0 0 0 0 0 0 0 0 0 0 0 0 0 0 0 0 0 0
0 0 0 0 0 0 0 0 0 0 0 0 0 0 0 0 0 0 0 0 0 0 0 0 0 0 0 0 0 0 0 0 0 0 0 0 0 0
0 0 0 0 0 0 0 0 0 0 0 0 0 0 0 0 0 0 0 0 0 0 0 0 0 0 0 0 0 0 0 0 0 0 0 0 0 0
0 0 0 0 0 0 0 0 0 0 0 0 0 0 0 0 0 0 0 0 0 0 0 0 0 0 0 0 0 0 0 0 0 0 0 0 0 0
0 0 0 0 0 0 0 0 0 0 0 0 0 0 0 0 0 0 0 0 0 0 0 0 0 0 0 0 0 0 0 0 0 0 0 0 0 0
0 0 0 0 0 0 0 0 0 0 0 0 0 0 0 0 0 0 0 0 0 0 0 0 0 0 0 0 0 0 0 0 0 0 0 0 0 0
0 0 0 0 0 0 0 0 0 0 0 0 0 0 0 0 0 0 0 0 0 0 0 0 0 0 0 0 0 0 0 0 0 0 0 0 0 0
0 0 0 0 0 0 0 0 0 0 0 0 0 0 0 0 0 0 0 0 0 0 0 0 0 0 0 0 0 0 0 0 0 0 0 0 0 0
0 0 0 0 0 0 0 0 0 0 0 0 0 0 0 0 0 0 0 0 0 0 0 0 0 0 0 0 0 0 0 0 0 0 0 0 0 0
0 0 0 0 0 0 0 0 0 0 0 0 0 0 0 0 0 0 0 0 0 0 0 0 0 0 0 0 0 0 0 0 0 0 0 0 0 0
0 0 0 0 0 0 0 0 0 0 0 0 0 0 0 0 0 0 0 0 -0 -0 0 0 0 0 0 0 0 0 0 0 0 0 0 0 0 0
0 0 0 0 0 0 0 0 0 0 0 0 0 0 0 0 0 -0 -0 -0 -0 0 0 0 0 0 0 0 0 0 0 0 0 0 0 0 0 0
Wind_Speed
7 8 7 5 5 5 5 5 5 4 5 4 2 2 2 2 3 6 7 10 10 9 8 7 7 6 6 6 5 5 5 6 6 6 7 8 9 9
3 5 5 4 4 4 4 4 3 3 2 3 3 2 2 2 3 5 3 8 7 7 7 7 7 6 6 6 6 6 6 7 8 8 8 8 9 9
4 4 5 4 4 3 3 3 3 3 3 2 2 2 3 3 4 4 4 5 6 7 6 6 5 5 5 5 5 5 6 7 7 8 9 9 9 9
4 5 5 4 5 4 4 4 4 4 3 3 3 3 3 2 3 4 3 3 4 7 5 4 3 2 1 1 2 3 4 5 6 7 8 9 9 9
2 3 4 4 4 4 4 4 4 4 3 3 3 3 3 3 4 4 4 4 4 7 7 7 7 6 5 4 3 2 3 3 3 4 5 6 7 7
1 2 2 3 3 4 4 5 4 4 4 4 4 4 3 3 4 5 5 4 4 5 6 7 9 10 9 8 7 5 4 3 3 3 3 3 4 5
1 0 1 1 0 2 3 4 5 5 5 4 4 4 4 4 4 4 5 5 5 4 5 5 5 5 6 8 8 9 8 7 6 5 5 5 5 6
2 1 1 3 4 4 1 1 1 3 5 4 4 4 5 4 4 4 6 6 4 3 5 5 5 6 7 7 10 11 11 10 9 9 9 8 9 10
2 1 0 1 2 5 6 6 4 4 2 1 4 4 5 5 6 6 5 5 5 4 5 5 5 7 7 9 13 14 14 13 13 12 13 13 13 14
3 1 1 1 1 3 7 7 7 6 2 2 5 5 5 5 4 5 8 8 7 4 4 4 4 5 7 8 14 16 16 15 15 15 14 13 12 13
4 3 1 2 2 1 6 9 9 8 10 14 14 12 12 9 4 5 6 6 6 4 3 4 5 5 6 6 10 16 16 16 16 15 14 12 8 5
3 3 5 4 2 2 5 8 9 9 9 10 9 9 9 7 3 3 3 4 6 4 3 4 5 5 4 4 5 5 8 12 14 15 16 15 13 5
3 3 4 5 3 2 1 5 8 9 8 8 7 7 6 6 6 5 4 2 3 4 3 2 3 3 4 5 4 5 5 4 5 8 12 13 14 11
3 3 4 5 5 3 4 9 8 7 7 6 6 6 6 6 6 7 9 9 8 7 3 1 2 2 4 5 4 4 4 4 4 5 5 6 8 9
5 7 6 5 5 6 9 8 6 5 6 6 6 6 6 6 6 7 8 9 10 9 6 5 4 3 3 4 5 4 3 4 4 4 4 5 6 5
5 7 7 7 6 8 7 5 4 4 5 6 7 6 6 5 5 5 5 5 7 7 8 8 7 6 6 6 5 5 3 3 2 3 3 4 5 5
3 4 4 5 5 5 5 5 5 5 6 6 6 6 5 5 4 4 3 4 5 5 6 7 9 9 9 6 5 5 4 3 2 2 1 3 4 4
3 6 5 5 5 5 5 5 5 5 5 5 6 5 5 5 5 4 3 4 5 5 5 5 5 5 6 6 7 3 3 2 1 1 1 1 3 3
5 6 5 5 5 5 5 5 5 5 4 5 5 5 5 5 5 4 4 4 5 4 3 2 2 2 3 4 5 5 2 2 0 1 1 1 2 3
5 5 5 5 4 4 4 5 5 5 4 5 5 5 5 5 5 5 4 4 4 4 3 2 1 1 1 2 4 4 3 2 1 1 1 1 1 2
4 4 4 4 4 4 4 4 4 4 5 4 4 4 4 4 4 4 4 4 3 3 3 3 2 1 1 2 4 4 4 3 4 4 4 3 2 2
3 3 3 3 3 3 3 3 4 4 4 4 4 4 4 4 4 5 4 4 3 3 3 4 4 3 2 2 2 3 3 4 4 3 0 3 4 4
2 2 2 2 2 2 2 3 3 3 3 3 4 4 4 4 3 3 3 3 3 4 4 4 4 2 2 2 2 2 2 2 1 3 3 7 6 7
Wind_Direction
209 207 203 201 198 204 208 208 209 212 211 200 191 180 214 236 154 217 218 177 195 204 206 203 201 203 214 227 238 249 255 253 254 255 259 266 273 279
193 196 195 194 192 194 198 200 207 211 205 173 182 173 186 206 187 238 213 147 187 199 202 202 204 207 217 231 240 246 250 251 254 257 259 265 272 277
168 172 174 168 173 180 186 188 192 198 199 163 156 183 197 204 179 210 195 195 169 176 188 193 199 209 228 243 253 256 257 257 261 265 268 270 273 276
159 165 166 166 173 178 183 189 190 192 191 179 170 184 190 183 181 180 180 182 154 130 138 139 141 142 179 282 285 277 273 270 269 271 275 279 283 286
160 175 175 174 176 183 188 190 191 186 187 189 167 160 167 169 170 161 161 149 135 126 119 106 91 83 69 52 28 356 328 307 297 293 292 293 296 298
151 161 178 185 187 189 191 189 187 179 182 185 169 162 155 168 178 163 144 128 118 113 97 97 97 87 74 60 50 41 31 19 4 345 330 326 328 327
35 88 193 197 238 212 205 191 187 181 178 179 167 160 157 166 168 157 136 126 100 104 107 97 99 83 77 67 56 51 54 53 49 46 40 33 31 30
17 349 207 195 188 182 160 104 171 188 177 174 171 164 149 145 144 146 146 150 121 104 101 84 80 74 59 53 47 55 59 59 57 56 56 54 53 52
49 26 338 115 186 158 148 150 116 59 8 192 152 140 139 143 151 150 145 121 107 121 112 94 87 83 74 59 55 58 59 61 61 63 65 64 63 62
59 51 38 103 137 166 160 146 123 104 95 132 111 103 105 124 130 122 114 111 106 106 121 105 102 93 86 72 61 62 60 60 62 64 65 65 66 67
63 63 45 111 67 267 158 135 119 101 72 68 69 78 68 54 64 129 140 138 123 113 109 115 127 112 94 92 82 74 67 61 60 60 57 47 42 75
71 84 64 62 84 308 158 142 132 125 123 115 109 115 106 93 23 120 138 140 135 124 132 140 157 149 117 84 75 83 83 80 72 63 54 40 17 28
68 81 80 72 84 27 46 127 125 131 126 120 111 104 97 90 79 72 63 67 111 106 130 164 168 166 132 129 91 63 59 66 81 86 73 58 40 31
56 64 78 76 86 72 88 105 121 133 128 126 116 106 97 87 80 77 75 67 64 81 91 100 129 148 138 132 121 104 72 54 53 57 66 105 91 80
61 63 68 77 107 101 103 123 147 138 133 129 116 106 102 104 100 94 91 85 76 64 57 62 86 103 106 114 117 123 108 66 44 52 56 49 49 46
88 93 91 81 87 98 121 135 131 118 128 124 119 118 117 118 115 114 114 114 96 76 60 61 69 80 85 86 97 97 89 91 59 53 61 61 56 52
79 98 98 104 100 102 104 103 112 123 120 124 126 129 128 122 114 107 107 108 107 105 99 87 81 76 64 59 99 93 98 95 75 36 34 75 68 53
77 87 83 84 91 98 102 103 103 108 117 125 127 131 133 131 126 121 120 117 116 118 121 128 133 134 125 81 31 74 94 94 92 31 330 22 77 65
80 78 77 77 81 86 92 99 102 106 115 123 128 131 132 133 134 133 130 125 125 126 127 145 191 216 205 143 102 19 16 88 131 132 23 344 23 47
68 73 75 76 80 88 96 105 111 117 121 124 127 131 137 140 140 140 136 135 137 140 137 128 71 338 335 99 120 108 27 354 329 337 344 271 214 199
71 72 74 79 84 91 98 109 116 120 123 126 126 132 140 144 142 140 127 125 160 159 152 119 91 305 101 136 139 136 113 72 358 350 337 307 279 250
79 80 76 75 85 93 105 118 124 125 131 132 132 138 143 147 148 153 154 162 166 149 133 124 151 189 197 196 163 143 147 155 156 169 267 327 325 323
97 92 89 84 79 90 116 133 138 138 141 143 145 149 151 152 155 159 161 165 159 157 160 157 160 163 163 167 173 161 162 207 246 231 189 177 215 248